Cambridge, MN

5:32 AM CDT on March 27, 2017 (GMT -0500)
Cambridge Municipal

Weather History for KCBG - December, 2013

Change the Weather History Date:

Monday, December 9, 2013

  Actual Average Record
Temperature  
Mean Temperature -1 °F -  
Max Temperature 3 °F 24 °F 48 °F (1990)
Min Temperature -5 °F 9 °F -17 °F (1978)
Degree Days  
Heating Degree Days 66    
Moisture  
Dew Point -9 °F    
Average Humidity 68    
Maximum Humidity 78    
Minimum Humidity 60    
Precipitation  
Precipitation 0.00 in - - ()
Sea Level Pressure  
Sea Level Pressure 29.97 in    
Wind  
Wind Speed 5 mph (SW)    
Max Wind Speed 15 mph    
Max Gust Speed 24 mph    
Visibility 9 miles    
Events Snow    
Averages and records for this station are not official NWS values.
T = Trace of Precipitation, MM = Missing Value Source: NWS Daily Summary

Daily Weather History Graph

Daily Weather History Graph

Search for Another Location

Airport or City:

Trip Planner

Search our weather history database for the weather conditions in past years. The results will help you decide how hot, cold, wet, or windy it might be!

Date:

Astronomy

Dec. 09, 2013 Rise Set
Actual Time 7:41 AM CST 4:29 PM CST
Civil Twilight 7:07 AM CST 5:03 PM CST
Nautical Twilight 6:30 AM CST 5:40 PM CST
Astronomical Twilight 5:54 AM CST 6:16 PM CST
Moon 12:17 PM CST (12/9) No Moon Set
Length of Visible Light 9h 55m
Length of Day
8h 47m
Waxing Crescent, 51% of the Moon is Illuminated
Dec 9
Waxing Crescent
Dec 17
Full
Dec 25
Last Quarter
Jan 1
New
Jan 7
First Quarter

Hourly Weather History & Observations

Time (CST) Temp. Windchill Dew Point Humidity Pressure Visibility Wind Dir Wind Speed Gust Speed Precip Events Conditions
12:16 AM 3.2 °F - -2.2 °F 78% 29.98 in 2.5 mi Calm Calm - N/A Snow Light Snow
12:35 AM 1.4 °F - -4.0 °F 78% 29.97 in 2.5 mi Calm Calm - N/A Snow Light Snow
12:56 AM 1.4 °F - -5.8 °F 72% 29.97 in 3.0 mi Calm Calm - N/A Snow Light Snow
1:15 AM 1.4 °F - -5.8 °F 72% 29.96 in 4.0 mi Calm Calm - N/A Snow Light Snow
1:35 AM 1.4 °F - -5.8 °F 72% 29.96 in 3.0 mi Calm Calm - N/A Snow Light Snow
1:56 AM 1.4 °F - -5.8 °F 72% 29.96 in 1.5 mi Calm Calm - N/A Snow Light Snow
2:15 AM 3.2 °F - -2.2 °F 78% 29.95 in 4.0 mi Calm Calm - N/A Snow Light Snow
2:36 AM 3.2 °F - -2.2 °F 78% 29.96 in 3.0 mi Calm Calm - N/A Snow Light Snow
2:55 AM -0.4 °F - -7.6 °F 72% 29.95 in 7.0 mi Calm Calm - N/A Snow Light Snow
3:15 AM -0.4 °F - -5.8 °F 78% 29.94 in 7.0 mi Calm Calm - N/A Snow Light Snow
3:36 AM 3.2 °F -4.2 °F -2.2 °F 78% 29.93 in 10.0 mi West 3.5 mph - N/A Snow Light Snow
3:56 AM 3.2 °F -6.2 °F -2.2 °F 78% 29.93 in 10.0 mi West 4.6 mph - N/A Snow Light Snow
4:15 AM 3.2 °F -4.2 °F -2.2 °F 78% 29.93 in 7.0 mi WSW 3.5 mph - N/A Snow Light Snow
4:36 AM 3.2 °F -4.2 °F -2.2 °F 78% 29.92 in 4.0 mi WSW 3.5 mph - N/A Snow Light Snow
4:55 AM 3.2 °F -4.2 °F -2.2 °F 78% 29.93 in 10.0 mi WSW 3.5 mph - N/A Snow Light Snow
5:15 AM 3.2 °F -4.2 °F -4.0 °F 72% 29.93 in 10.0 mi SW 3.5 mph - N/A Snow Light Snow
5:35 AM 1.4 °F - -5.8 °F 72% 29.92 in 10.0 mi Calm Calm - N/A Snow Light Snow
5:56 AM 1.4 °F -6.2 °F -5.8 °F 72% 29.92 in 10.0 mi WSW 3.5 mph - N/A   Clear
6:15 AM 1.4 °F -6.2 °F -5.8 °F 72% 29.93 in 10.0 mi WSW 3.5 mph - N/A   Clear
6:36 AM 1.4 °F -12.5 °F -5.8 °F 72% 29.93 in 10.0 mi West 8.1 mph - N/A   Clear
6:55 AM -0.4 °F -13.4 °F -7.6 °F 72% 29.94 in 10.0 mi WSW 6.9 mph - N/A   Clear
7:15 AM -0.4 °F -14.7 °F -7.6 °F 72% 29.95 in 10.0 mi WSW 8.1 mph - N/A   Clear
7:35 AM -2.2 °F -15.6 °F -9.4 °F 71% 29.96 in 10.0 mi West 6.9 mph - N/A   Clear
7:56 AM -2.2 °F -18.0 °F -9.4 °F 71% 29.97 in 10.0 mi WSW 9.2 mph - N/A   Clear
8:15 AM -2.2 °F -16.8 °F -11.2 °F 66% 29.98 in 10.0 mi WSW 8.1 mph - N/A   Clear
8:36 AM -4.0 °F -23.0 °F -11.2 °F 71% 29.98 in 10.0 mi West 12.7 mph 16.1 mph N/A Snow Light Snow
8:55 AM -4.0 °F -24.5 °F -11.2 °F 71% 29.99 in 10.0 mi WSW 15.0 mph 20.7 mph N/A Snow Light Snow
9:16 AM -4.0 °F -22.1 °F -13.0 °F 65% 30.00 in 10.0 mi West 11.5 mph 19.6 mph N/A Snow Light Snow
9:35 AM -4.0 °F -23.7 °F -13.0 °F 65% 30.00 in 7.0 mi West 13.8 mph 20.7 mph N/A Snow Light Snow
9:56 AM -4.0 °F -22.1 °F -13.0 °F 65% 30.01 in 10.0 mi West 11.5 mph 18.4 mph N/A Snow Light Snow
10:15 AM -2.2 °F -19.9 °F -13.0 °F 60% 30.02 in 10.0 mi West 11.5 mph 18.4 mph N/A Snow Light Snow
10:36 AM -2.2 °F -20.7 °F -13.0 °F 60% 30.02 in 7.0 mi West 12.7 mph 18.4 mph N/A Snow Light Snow
10:55 AM -2.2 °F -21.5 °F -11.2 °F 66% 30.02 in 10.0 mi West 13.8 mph 20.7 mph N/A Snow Light Snow
11:16 AM -2.2 °F -20.7 °F -11.2 °F 66% 30.02 in 5.0 mi West 12.7 mph 19.6 mph N/A Snow Light Snow
11:35 AM -2.2 °F -22.2 °F -11.2 °F 66% 30.01 in 3.0 mi West 15.0 mph 24.2 mph N/A Snow Light Snow
11:55 AM -2.2 °F -19.9 °F -11.2 °F 66% 30.01 in 7.0 mi WSW 11.5 mph 19.6 mph N/A   Clear
12:16 PM -0.4 °F -19.2 °F -11.2 °F 60% 30.01 in 10.0 mi West 13.8 mph 20.7 mph N/A Snow Light Snow
12:35 PM -0.4 °F -19.9 °F -11.2 °F 60% 30.00 in 10.0 mi West 15.0 mph 19.6 mph N/A Snow Light Snow
12:56 PM -0.4 °F -14.7 °F -11.2 °F 60% 30.01 in 10.0 mi West 8.1 mph 17.3 mph N/A   Clear
1:15 PM -0.4 °F -18.4 °F -11.2 °F 60% 30.01 in 10.0 mi WSW 12.7 mph 17.3 mph N/A   Clear
1:36 PM -0.4 °F -18.4 °F -11.2 °F 60% 30.01 in 10.0 mi West 12.7 mph 18.4 mph N/A   Clear
1:55 PM -0.4 °F -17.6 °F -11.2 °F 60% 30.01 in 10.0 mi WSW 11.5 mph 16.1 mph N/A   Clear
2:16 PM 1.4 °F -14.5 °F -9.4 °F 61% 30.01 in 10.0 mi West 10.4 mph - N/A   Clear
2:35 PM 1.4 °F -13.5 °F -9.4 °F 61% 30.01 in 10.0 mi West 9.2 mph - N/A   Clear
2:56 PM 1.4 °F -13.5 °F -9.4 °F 61% 30.01 in 10.0 mi SW 9.2 mph 16.1 mph N/A   Clear
3:15 PM -0.4 °F -17.6 °F -9.4 °F 66% 30.01 in 10.0 mi WSW 11.5 mph 18.4 mph N/A   Clear
3:35 PM -0.4 °F -14.7 °F -11.2 °F 60% 30.02 in 10.0 mi SW 8.1 mph - N/A   Clear
3:56 PM -0.4 °F -12.0 °F -11.2 °F 60% 30.03 in 10.0 mi SW 5.8 mph - N/A   Clear
4:15 PM -0.4 °F -12.0 °F -11.2 °F 60% 30.03 in 10.0 mi WSW 5.8 mph - N/A   Clear
4:36 PM -0.4 °F -10.4 °F -11.2 °F 60% 30.04 in 10.0 mi WSW 4.6 mph - N/A   Clear
4:55 PM -2.2 °F - -11.2 °F 66% 30.04 in 10.0 mi Calm Calm - N/A   Clear
5:16 PM -2.2 °F -10.4 °F -11.2 °F 66% 30.04 in 10.0 mi South 3.5 mph - N/A   Clear
5:35 PM -2.2 °F -12.5 °F -11.2 °F 66% 30.03 in 10.0 mi South 4.6 mph - N/A   Clear
5:51 PM -2.2 °F -10.4 °F -11.2 °F 66% 30.02 in 10.0 mi SSW 3.5 mph - N/A   Clear
6:01 PM -4.0 °F -14.6 °F -11.2 °F 71% 30.01 in 10.0 mi South 4.6 mph - N/A   Clear
6:21 PM -4.0 °F -14.6 °F -13.0 °F 65% 30.01 in 10.0 mi South 4.6 mph - N/A   Clear
6:41 PM -5.8 °F -18.4 °F -13.0 °F 71% 30.00 in 10.0 mi SSE 5.8 mph - N/A   Clear
7:01 PM -5.8 °F -19.9 °F -14.8 °F 65% 30.00 in 10.0 mi South 6.9 mph - N/A   Clear
7:41 PM -5.8 °F -19.9 °F -13.0 °F 71% 29.99 in 10.0 mi South 6.9 mph - N/A   Clear
8:21 PM -5.8 °F -21.2 °F -13.0 °F 71% 29.97 in 10.0 mi South 8.1 mph - N/A   Clear
8:41 PM -5.8 °F -19.9 °F -13.0 °F 71% 29.96 in 10.0 mi South 6.9 mph - N/A   Clear
9:01 PM -5.8 °F -19.9 °F -13.0 °F 71% 29.94 in 10.0 mi South 6.9 mph - N/A   Clear
9:41 PM -5.8 °F -18.4 °F -13.0 °F 71% 29.92 in 10.0 mi South 5.8 mph - N/A   Clear
10:01 PM -4.0 °F -17.8 °F -11.2 °F 71% 29.92 in 10.0 mi South 6.9 mph - N/A   Scattered Clouds
10:21 PM -2.2 °F -15.6 °F -11.2 °F 66% 29.89 in 10.0 mi SSE 6.9 mph - N/A   Overcast
10:41 PM -2.2 °F -14.2 °F -9.4 °F 71% 29.88 in 10.0 mi SSE 5.8 mph - N/A   Overcast
11:01 PM -2.2 °F -15.6 °F -9.4 °F 71% 29.87 in 10.0 mi SSE 6.9 mph - N/A   Overcast
11:21 PM -0.4 °F -10.4 °F -9.4 °F 66% 29.85 in 10.0 mi SE 4.6 mph - N/A   Overcast
11:41 PM -0.4 °F -12.0 °F -9.4 °F 66% 29.83 in 10.0 mi SE 5.8 mph - N/A   Overcast